Погода в Синьане

Китай     26°46′14″N   119°54′43″E
темп.,
°C
ветер,
м/с
пор.,
м/с
влажн.,
%
обл.,
%
осадки,
мм/ч
давл.,
гПа
погр.,
м
6 марта, сб
сб623:00+12св238693 0.5 1019117
02:00+12ссв238996 1.0 1018140
05:00+12ссв1392100 0.9 1018126
08:00+12с2393100 2.3 1020154
11:00+13всв239390 0.5 1020202
14:00+15всв478889 0.5 1018358
17:00+13всв7109098 0.0 1019405
20:00+12св5109299 2.3 1021456
7 марта, вс
вс723:00+11ссв4892100 2.2 1023434
02:00+11св3590100 2.3 1022285
05:00+10св229178 0.0 102295
08:00+12св248577 0.0 1024295
11:00+14в237821 0.0 1024425
14:00+14всв468024 0.0 1022342
17:00+13всв698355 0.0 1022412
20:00+12всв6108767 0.0 1024460
8 марта, пн
пн823:00+12св478799 0.0 1025466
02:00+11св358989 0.0 1024287
05:00+11всв358983 0.0 1023246
08:00+11св368591 0.0 1025382
11:00+13всв577878 0.0 1024510
14:00+14всв577770 0.0 1022457
17:00+12всв588374 0.0 1022415
20:00+11всв578885 0.3 1024352
9 марта, вт
вт923:00+11всв3689100 0.1 1024325
02:00+11св3591100 0.1 1023291
05:00+10ссв229569 0.0 1023104
08:00+12св228778 0.0 1024257
11:00+13в238255 0.0 1024328
14:00+13всв458472 0.0 1023344
17:00+12всв478675 0.0 1023353
20:00+12всв588982 0.0 1025410
10 марта, ср
ср1023:00+12св578891 0.0 1026424
02:00+11св368995 0.0 1025419
05:00+11всв588794 0.0 1025406
08:00+11св598392 0.0 1026495
11:00+12св588094 0.0 1026585
14:00+14всв577681 0.0 1024530
17:00+13всв46783 0.0 1023361
20:00+11ссв23872 0.0 1024113